This demonstration page uses our WeatherBlox Daily Observations layout. Learn more.

Left ArrowRight Arrow

Hourly Observations for August 30, 2021

Temp ( °F °C ) Dew Point ( °F °C ) Humidity (%) Winds ( mph kmh ) Pressure ( in mb ) Visibility ( mi km ) Precip ( " mm )
12:54 am 00:54 Clear 66 18.9 62 16.7 87 87 N 5 7 30.03 1017 10 16 0.00 0.00
1:54 am 01:54 Clear 64 17.8 61 16.1 90 90 Calm 30.03 1017 10 16 0.00 0.00
2:54 am 02:54 Cloudy 67 19.4 62 16.7 84 84 Calm 30.01 1016 10 16 0.00 0.00
3:54 am 03:54 Cloudy 67 19.4 64 17.8 91 91 S 5 7 30.00 1016 10 16 0.00 0.00
4:54 am 04:54 Cloudy 68 20 64 17.8 87 87 Calm 29.98 1015 10 16 0.00 0.00
5:54 am 05:54 Mostly Clear 66 18.9 63 17.2 90 90 N 6 9 29.99 1016 10 16 0.00 0.00
6:54 am 06:54 Mostly Cloudy 66 18.9 63 17.2 90 90 Calm 29.99 1016 9 14 0.00 0.00
7:54 am 07:54 Partly Cloudy with Mist and Fog 68 20 64 17.8 87 87 NE 3 6 30.01 1016 6 10 0.00 0.00
8:54 am 08:54 Sunny 70 21.1 65 18.3 84 84 E 5 7 30.00 1016 7 11 0.00 0.00
9:54 am 09:54 Mostly Sunny 74 23.3 66 18.9 76 76 ESE 5 7 29.98 1015 10 16 0.00 0.00
10:54 am 10:54 Mostly Sunny 79 26.1 68 20 69 69 VRB 6 9 29.96 1015 10 16 0.00 0.00
11:09 am 11:09 Mostly Cloudy 81 27.2 68 20 65 65 SE 6 9 29.93 1013 10 16 0.00 0.00
11:22 am 11:22 Partly Cloudy 80 26.7 67 19.4 64 64 VRB 6 9 29.93 1014 10 16 0.00 0.00
11:29 am 11:29 Mostly Cloudy 80 26.7 68 20 67 67 SSE 8 13 29.93 1014 10 16 0.00 0.00
11:54 am 11:54 Mostly Cloudy 81 27.2 68 20 65 65 SSE 6 9 29.94 1014 10 16 0.00 0.00
12:30 pm 12:30 Partly Cloudy 82 27.8 68 20 63 63 Calm 29.89 1012 10 16 0.00 0.00
12:45 pm 12:45 Mostly Cloudy 83 28.3 69 20.6 63 63 ESE 6 9 29.88 1012 10 16 0.00 0.00
12:54 pm 12:54 Mostly Cloudy 83 28.3 68 20 61 61 VRB 3 6 29.92 1013 10 16 0.00 0.00
1:16 pm 13:16 Mostly Cloudy 84 28.9 69 20.6 61 61 VRB 3 6 29.87 1012 10 16 0.00 0.00
1:54 pm 13:54 Partly Cloudy 85 29.4 69 20.6 59 59 SE 9 15 29.89 1012 10 16 0.00 0.00
2:54 pm 14:54 Mostly Cloudy 86 30 69 20.6 57 57 E 7 11 29.87 1012 10 16 0.00 0.00
3:54 pm 15:54 Mostly Cloudy 88 31.1 69 20.6 54 54 SE 10 17 29.84 1011 10 16 0.00 0.00
4:54 pm 16:54 Mostly Sunny 85 29.4 67 19.4 55 55 SE 6 9 29.82 1010 10 16 0.00 0.00
5:54 pm 17:54 Sunny 88 31.1 68 20 52 52 SE 7 11 29.81 1010 10 16 0.00 0.00
6:54 pm 18:54 Sunny 86 30 69 20.6 57 57 SE 8 13 29.80 1009 10 16 0.00 0.00
7:54 pm 19:54 Sunny 83 28.3 70 21.1 65 65 ESE 8 13 29.79 1009 10 16 0.00 0.00
8:54 pm 20:54 Clear 81 27.2 70 21.1 69 69 ESE 8 13 29.80 1009 10 16 0.00 0.00
9:54 pm 21:54 Clear 81 27.2 70 21.1 69 69 SSE 9 15 29.80 1009 10 16 0.00 0.00
10:54 pm 22:54 Clear 80 26.7 70 21.1 71 71 SSE 14 22 29.78 1009 10 16 0.00 0.00
11:54 pm 23:54 Clear 80 26.7 70 21.1 71 71 SSE 14 22 29.75 1007 10 16 0.00 0.00

Powered by AerisWeather